Location: Peralejo
(40.5415°N, 4.1259°W)
Time: 13:50:33
(UTC+00:00)

Cosmos 1354 Rocket - Pass Details

Date: 18 April 2024
Orbit: 762 x 781 km, 74.0° (Epoch: 23 May)

Event Time Altitude Azimuth Distance (km) Brightness Sun altitude
Rises 20:36:27 0° 344° (NNW) 3,275 8.0 -17.6°
Reaches altitude 10° 20:38:53 10° 349° (NNW) 2,344 7.1 -18.0°
Maximum altitude 20:44:09 58° 68° (ENE) 911 4.2 -18.9°
Enters shadow 20:46:03 37° 128° (SE) 1,204 4.5 -19.2°
